SCP
0 0 -0 -0 0 0 0 -0 -0 0 -0 0 -0 -0 -0 0 0 0 0 0 0 0 0 0 0 0 0 0 0 0 0 0 0 0 0 0 0 0 0 0 0 0 0
0 0 0 0 0 0 0 0 0 0 0 0 0 0 0 0 0 0 -0 -0 -0 -0 0 0 0 0 0 0 0 0 0 0 0 0 0 0 0 0 0 0 0 0 0
0 0 0 0 0 0 0 0 0 0 0 0 0 0 0 0 0 0 0 0 0 0 0 0 0 0 0 0 0 0 0 0 0 0 0 0 0 0 0 0 0 0 0
0 0 0 0 0 0 0 0 0 0 0 0 0 0 0 0 0 0 0 0 0 0 0 0 0 0 0 0 0 0 0 0 0 0 0 0 0 0 0 0 0 0 0
0 0 0 0 0 0 0 0 0 0 0 0 0 0 0 0 0 0 0 0 0 0 0 0 0 0 0 0 0 0 0 0 0 0 0 0 0 0 0 0 0 0 0
0 0 0 0 0 0 0 0 0 0 0 0 0 0 0 0 0 0 0 0 0 0 0 0 0 0 0 0 0 0 0 0 0 0 0 0 0 0 0 0 0 0 0
0 0 0 0 0 0 0 0 0 0 0 0 0 0 0 0 0 0 0 0 0 0 0 0 0 0 0 0 0 0 0 0 0 0 0 0 0 0 0 0 0 0 0
0 0 0 0 0 0 0 0 0 0 0 0 0 0 0 0 0 0 0 0 0 0 0 0 0 0 0 0 0 0 0 0 0 0 0 0 0 0 0 0 0 0 0
-0 0 0 0 0 0 0 0 0 0 0 0 0 0 0 0 0 0 0 0 0 0 0 0 0 0 0 0 0 0 0 0 0 0 0 0 0 0 0 0 0 0 0
-0 0 0 0 -0 0 0 0 0 0 0 0 0 0 0 0 0 0 0 0 0 0 0 0 0 0 0 0 0 0 0 0 0 0 0 0 0 0 0 0 0 0 0
0 0 0 0 0 0 0 0 0 0 0 0 0 0 0 0 0 0 0 0 0 0 0 0 0 0 0 0 0 0 0 0 0 0 0 0 0 0 0 0 0 0 0
0 0 0 0 0 0 0 0 0 0 0 0 0 0 0 0 0 0 0 0 0 0 0 0 0 0 0 0 0 0 0 0 0 0 0 0 0 0 0 0 0 0 0
0 0 0 0 0 0 0 0 0 0 0 0 0 0 0 0 0 0 0 0 0 0 0 0 0 0 0 0 0 0 0 0 0 0 0 0 0 0 0 0 0 0 0
0 0 0 0 0 0 0 0 0 0 0 0 0 0 0 0 0 0 0 0 0 0 0 0 0 0 0 0 0 0 0 0 0 0 0 0 0 0 0 0 0 0 0
0 0 0 0 0 0 0 0 0 0 0 0 0 0 0 0 0 0 0 0 0 0 0 0 0 0 0 0 0 0 0 0 0 0 0 0 0 0 0 0 0 0 0
0 0 0 0 0 0 0 0 0 0 0 0 0 0 0 0 0 0 0 0 0 0 0 0 0 0 0 0 0 0 0 0 0 0 0 0 0 0 0 0 0 0 0
0 0 0 0 0 0 0 0 0 0 0 0 0 0 0 0 0 0 0 0 0 0 0 0 0 0 0 0 0 0 0 0 0 0 0 0 0 0 0 0 0 0 0
0 0 0 0 0 0 0 0 0 0 0 0 0 0 0 0 0 0 0 0 0 0 0 0 0 0 0 0 0 0 0 0 0 0 0 0 0 0 0 0 0 0 0
0 0 0 0 0 0 0 0 0 0 0 0 0 0 0 0 0 0 0 0 0 0 0 0 0 0 0 0 0 0 0 0 0 0 0 0 0 0 0 0 0 0 0
0 0 0 0 0 0 0 0 0 0 0 0 0 0 0 0 0 0 0 0 0 0 0 0 0 0 0 0 0 0 0 0 0 0 0 0 0 0 0 0 0 0 0
0 0 0 0 0 0 0 0 0 0 0 0 0 0 0 0 0 0 0 0 0 0 0 0 0 0 0 0 0 0 0 0 0 0 0 0 0 0 0 0 0 0 0
0 0 0 0 0 0 0 0 0 0 0 0 0 0 0 0 0 0 0 0 0 0 0 0 0 0 0 0 0 0 0 0 0 0 0 0 0 0 0 0 0 0 0
0 0 0 0 0 0 0 0 0 0 0 0 0 0 0 0 -0 -0 -0 -0 0 0 0 0 0 0 0 0 0 0 0 0 0 0 0 0 0 0 0 0 0 0 0
0 0 0 0 0 0 0 0 0 0 0 0 0 0 0 0 0 -0 -0 -0 -0 -0 -0 0 0 0 0 0 0 0 0 0 0 0 0 0 0 0 0 0 0 0 0
0 0 0 0 0 0 0 0 0 0 0 0 0 0 0 0 0 0 -0 -0 -0 0 -0 -0 -0 0 0 0 0 0 0 0 0 0 0 0 0 0 0 0 0 0 0
0 0 0 0 0 0 0 0 0 0 0 0 0 0 0 0 0 0 0 0 0 0 0 0 0 0 0 0 0 0 0 0 0 0 0 0 0 0 0 0 0 0 0
Wind_Speed_500mb
55 66 72 75 67 65 59 52 48 47 42 38 35 37 43 44 33 32 33 32 31 26 28 34 33 28 26 27 24 20 20 22 24 19 23 21 16 22 26 25 22 19 15
57 62 74 75 70 67 64 59 52 50 44 42 37 33 30 41 37 35 34 34 35 35 31 35 34 33 32 27 28 27 26 27 29 27 25 28 27 28 30 30 26 23 22
66 63 72 77 77 74 65 64 60 58 54 44 42 42 35 37 39 40 42 38 40 39 37 38 37 35 35 33 28 32 29 27 28 30 30 29 31 32 33 34 32 31 30
75 71 65 67 70 73 72 65 65 64 59 54 50 47 43 39 40 40 45 47 46 41 39 38 37 39 41 36 35 33 33 36 34 34 31 31 35 38 40 41 40 36 35
79 74 71 63 58 62 68 68 66 65 65 56 53 51 52 50 50 47 46 44 42 39 41 39 38 37 38 39 39 37 39 36 37 39 39 39 38 42 45 42 40 40 41
34 62 67 66 57 53 60 60 62 58 63 60 62 59 53 48 43 40 41 43 41 40 40 38 38 35 35 34 38 40 40 42 43 42 42 43 44 43 40 41 43 47 50
48 37 45 52 58 62 57 59 60 59 56 58 56 56 55 53 45 41 41 44 43 39 37 36 36 35 35 35 36 37 39 40 42 46 47 45 46 43 42 44 46 48 48
54 48 36 30 27 32 52 59 65 67 61 61 59 61 59 54 49 44 40 42 42 41 40 38 38 40 40 39 40 42 44 43 40 38 41 41 41 40 43 45 45 48 49
32 39 44 23 23 33 42 45 54 65 65 59 58 61 59 52 53 52 52 50 49 48 44 45 44 46 45 45 46 47 45 45 45 43 41 41 41 39 38 39 41 41 49
11 13 33 47 45 46 42 47 54 73 65 58 57 57 61 59 61 59 54 52 53 54 51 50 47 47 47 46 47 46 47 45 44 44 42 40 41 40 37 38 39 37 38
17 15 19 24 35 34 34 31 31 40 53 48 58 64 68 67 68 64 61 60 60 58 58 55 52 49 41 44 45 44 44 41 43 40 35 36 37 38 34 34 32 30 33
15 15 13 11 10 21 24 23 26 31 35 46 34 71 62 56 50 44 34 35 37 41 39 38 39 38 35 38 43 44 42 41 41 41 35 31 25 19 19 18 17 21 25
5 8 7 4 6 7 5 7 10 19 31 30 32 24 21 30 28 31 33 33 33 36 37 35 35 33 33 35 38 36 40 41 34 25 15 12 10 10 13 15 17 16 14
7 9 8 7 6 7 2 10 6 9 7 7 14 23 27 10 11 14 14 16 19 19 17 19 16 13 9 8 7 8 7 7 10 10 10 11 12 13 12 11 8 5 9
10 9 10 7 6 5 12 5 8 7 6 6 5 7 3 9 6 2 10 9 9 10 12 10 10 8 8 12 14 13 13 15 14 12 12 11 10 9 7 4 2 2 10
12 10 8 6 9 8 9 11 8 7 9 10 12 7 5 6 5 8 7 8 12 12 11 7 7 9 12 15 17 16 14 13 12 9 9 8 8 6 5 7 8 7 6
10 7 8 6 6 6 8 9 7 11 11 9 8 9 8 6 7 8 9 13 14 12 7 8 7 7 10 9 10 9 8 8 7 6 6 7 7 9 8 6 5 8 12
10 9 8 6 6 7 5 4 4 4 4 4 5 6 5 3 3 3 3 6 8 8 8 8 7 8 8 7 7 8 8 7 8 7 9 7 8 7 6 5 6 6 10
11 10 9 10 13 12 9 9 10 9 8 10 12 13 11 9 8 8 9 7 5 6 7 6 7 6 6 7 8 8 7 8 9 9 12 11 9 8 9 10 9 10 13
13 13 15 15 18 19 19 19 19 16 12 12 11 10 10 8 9 10 12 14 14 13 13 11 5 3 4 5 7 8 9 9 11 13 14 14 13 12 11 12 9 8 10
17 17 20 19 17 16 13 12 10 9 10 10 8 10 9 10 9 8 10 13 14 11 10 10 9 8 3 0 3 6 7 9 10 13 13 12 11 11 11 13 15 13 11
12 12 13 11 9 10 12 9 10 12 10 10 10 9 11 2 5 8 9 10 10 8 6 2 4 1 5 3 2 4 5 7 6 7 11 10 11 10 9 12 16 17 15
13 13 15 14 15 15 14 11 8 6 5 5 5 3 5 8 3 7 8 7 7 5 3 3 2 1 3 3 3 4 4 5 8 8 8 8 9 13 17 17 18 21 20
25 20 17 16 20 28 27 29 17 17 18 13 16 17 15 7 3 7 10 9 10 10 10 10 9 13 12 8 5 7 5 6 4 7 8 5 8 13 15 18 21 21 21
38 35 32 27 22 18 24 27 27 30 27 23 19 23 21 24 20 14 15 13 11 10 10 9 7 7 8 5 3 5 7 7 4 2 4 4 7 12 12 11 11 11 12
30 34 37 35 34 27 25 34 36 30 32 30 28 29 25 25 24 24 22 23 21 21 21 18 13 14 14 13 13 13 13 10 8 8 11 11 10 13 15 13 13 15 17
Wind_Direction_500mb
226 217 215 215 220 224 229 233 235 232 235 234 236 243 249 241 247 248 237 240 244 253 254 249 252 256 255 267 268 270 278 275 276 276 277 278 263 268 282 277 286 277 270
225 219 215 218 224 226 231 232 233 234 234 236 243 239 231 225 237 246 247 249 251 254 258 253 254 259 263 267 261 259 270 281 277 276 275 273 270 276 273 270 275 263 257
226 225 223 226 229 230 231 228 232 233 236 241 238 242 248 242 242 251 249 255 260 260 256 259 257 258 259 261 266 258 267 271 278 274 274 274 268 265 271 267 267 265 256
227 226 230 233 234 232 231 232 234 234 238 240 242 245 242 246 251 257 257 260 261 258 255 259 264 261 260 262 264 267 270 263 269 275 277 273 266 263 262 259 263 270 266
234 229 229 234 235 234 233 234 237 239 237 242 244 246 247 247 251 251 252 253 252 255 256 259 262 266 265 262 268 266 267 271 266 271 278 279 271 269 267 273 271 268 267
213 225 227 232 238 235 232 234 233 238 237 241 242 246 244 243 247 249 249 249 254 259 259 259 259 259 260 263 263 266 269 272 272 276 276 278 275 272 268 270 269 262 260
214 232 229 232 232 233 233 237 235 236 237 237 237 241 243 246 247 246 241 247 256 260 259 258 252 260 262 266 269 270 271 273 275 276 278 280 280 276 267 267 270 265 268
241 224 198 217 221 229 237 237 239 239 237 240 243 242 245 251 248 248 247 245 249 253 255 259 256 255 261 266 267 271 271 269 271 276 279 280 279 280 277 272 268 264 261
234 227 240 218 246 260 264 259 250 241 238 236 248 248 245 246 250 248 248 246 249 253 255 258 258 257 261 264 267 269 270 272 276 278 277 279 278 278 277 276 273 270 260
224 208 218 237 263 273 264 256 260 245 237 235 245 240 246 251 248 248 246 248 252 256 257 258 257 258 262 262 266 267 271 272 274 275 275 277 277 279 276 280 280 274 266
252 237 230 242 250 244 250 252 256 245 239 244 248 248 249 249 249 247 245 246 247 249 255 256 258 260 253 261 263 266 268 265 268 266 262 266 270 276 282 285 284 281 273
243 247 230 228 231 242 255 266 274 270 276 268 270 241 242 244 243 246 250 253 252 253 259 257 254 259 260 265 268 270 262 260 258 257 249 254 259 271 287 291 291 291 292
178 191 199 195 208 220 252 310 273 250 249 246 250 274 244 234 246 251 253 255 259 257 256 256 262 263 267 269 269 259 253 244 232 234 227 239 246 266 277 295 304 301 289
198 179 176 194 218 213 83 344 208 214 260 313 243 233 230 197 226 247 241 248 258 243 240 238 242 255 241 199 208 228 241 232 212 225 231 247 253 266 291 296 311 6 52
192 169 160 136 148 211 293 217 187 178 162 124 152 179 166 134 137 183 220 189 235 249 239 233 205 209 225 235 249 253 246 242 233 237 244 250 253 251 255 263 275 3 62
179 164 173 189 182 174 155 182 171 162 161 166 159 167 172 179 195 203 192 196 184 196 199 208 248 255 250 248 255 260 252 237 229 220 225 212 202 213 216 158 136 119 120
171 173 163 144 131 149 151 166 188 206 218 220 209 203 226 236 234 224 218 206 214 208 213 235 221 241 242 234 223 216 215 206 189 183 194 204 195 173 170 203 196 201 193
171 173 153 142 152 130 152 132 161 165 191 204 171 173 166 187 241 225 206 212 181 181 170 171 177 169 181 203 207 200 201 212 209 188 174 178 182 194 210 219 209 203 196
112 117 125 147 159 160 152 138 124 117 129 130 129 131 124 122 126 135 142 147 132 140 142 144 151 153 176 194 209 210 196 186 191 201 198 203 219 227 229 235 239 233 239
119 120 123 124 122 120 118 110 102 93 99 105 104 109 108 119 127 136 136 130 119 106 104 89 99 147 185 204 220 226 224 218 221 220 220 233 236 233 237 240 249 247 253
130 125 126 126 119 116 122 121 115 105 111 119 110 83 88 107 87 121 131 145 144 125 110 93 69 66 45 77 251 253 243 233 236 232 228 230 241 239 252 257 247 254 272
152 172 170 159 155 132 121 113 118 123 122 106 104 97 61 84 144 128 131 139 142 127 135 169 187 22 351 333 282 274 245 237 245 240 223 233 240 248 284 277 259 264 275
212 221 211 217 250 238 217 216 220 221 209 225 215 174 82 52 139 167 137 152 165 146 202 192 201 57 338 295 293 327 289 268 250 245 239 245 261 278 283 277 270 266 265
225 225 221 231 268 247 242 238 229 242 240 249 253 252 249 232 139 157 167 147 121 125 122 116 111 99 77 76 70 29 16 2 307 240 242 269 302 292 279 274 270 265 258
237 241 243 250 268 244 232 229 225 239 248 247 253 247 238 235 226 203 183 178 181 177 155 124 119 120 111 79 42 52 45 22 355 265 241 284 325 331 310 290 269 243 213
248 244 244 248 250 247 236 243 237 235 244 248 254 253 239 232 234 226 219 216 222 229 226 221 223 230 238 248 262 275 275 273 271 285 275 279 294 314 313 286 268 244 236
Wind_Speed_850mb
55 66 72 75 67 65 59 52 48 47 42 38 35 37 43 44 33 32 33 32 31 26 28 34 33 28 26 27 24 20 20 22 24 19 23 21 16 22 26 25 22 19 15
57 62 74 75 70 67 64 59 52 50 44 42 37 33 30 41 37 35 34 34 35 35 31 35 34 33 32 27 28 27 26 27 29 27 25 28 27 28 30 30 26 23 22
66 63 72 77 77 74 65 64 60 58 54 44 42 42 35 37 39 40 42 38 40 39 37 38 37 35 35 33 28 32 29 27 28 30 30 29 31 32 33 34 32 31 30
75 71 65 67 70 73 72 65 65 64 59 54 50 47 43 39 40 40 45 47 46 41 39 38 37 39 41 36 35 33 33 36 34 34 31 31 35 38 40 41 40 36 35
79 74 71 63 58 62 68 68 66 65 65 56 53 51 52 50 50 47 46 44 42 39 41 39 38 37 38 39 39 37 39 36 37 39 39 39 38 42 45 42 40 40 41
34 62 67 66 57 53 60 60 62 58 63 60 62 59 53 48 43 40 41 43 41 40 40 38 38 35 35 34 38 40 40 42 43 42 42 43 44 43 40 41 43 47 50
48 37 45 52 58 62 57 59 60 59 56 58 56 56 55 53 45 41 41 44 43 39 37 36 36 35 35 35 36 37 39 40 42 46 47 45 46 43 42 44 46 48 48
54 48 36 30 27 32 52 59 65 67 61 61 59 61 59 54 49 44 40 42 42 41 40 38 38 40 40 39 40 42 44 43 40 38 41 41 41 40 43 45 45 48 49
32 39 44 23 23 33 42 45 54 65 65 59 58 61 59 52 53 52 52 50 49 48 44 45 44 46 45 45 46 47 45 45 45 43 41 41 41 39 38 39 41 41 49
11 13 33 47 45 46 42 47 54 73 65 58 57 57 61 59 61 59 54 52 53 54 51 50 47 47 47 46 47 46 47 45 44 44 42 40 41 40 37 38 39 37 38
17 15 19 24 35 34 34 31 31 40 53 48 58 64 68 67 68 64 61 60 60 58 58 55 52 49 41 44 45 44 44 41 43 40 35 36 37 38 34 34 32 30 33
15 15 13 11 10 21 24 23 26 31 35 46 34 71 62 56 50 44 34 35 37 41 39 38 39 38 35 38 43 44 42 41 41 41 35 31 25 19 19 18 17 21 25
5 8 7 4 6 7 5 7 10 19 31 30 32 24 21 30 28 31 33 33 33 36 37 35 35 33 33 35 38 36 40 41 34 25 15 12 10 10 13 15 17 16 14
7 9 8 7 6 7 2 10 6 9 7 7 14 23 27 10 11 14 14 16 19 19 17 19 16 13 9 8 7 8 7 7 10 10 10 11 12 13 12 11 8 5 9
10 9 10 7 6 5 12 5 8 7 6 6 5 7 3 9 6 2 10 9 9 10 12 10 10 8 8 12 14 13 13 15 14 12 12 11 10 9 7 4 2 2 10
12 10 8 6 9 8 9 11 8 7 9 10 12 7 5 6 5 8 7 8 12 12 11 7 7 9 12 15 17 16 14 13 12 9 9 8 8 6 5 7 8 7 6
10 7 8 6 6 6 8 9 7 11 11 9 8 9 8 6 7 8 9 13 14 12 7 8 7 7 10 9 10 9 8 8 7 6 6 7 7 9 8 6 5 8 12
10 9 8 6 6 7 5 4 4 4 4 4 5 6 5 3 3 3 3 6 8 8 8 8 7 8 8 7 7 8 8 7 8 7 9 7 8 7 6 5 6 6 10
11 10 9 10 13 12 9 9 10 9 8 10 12 13 11 9 8 8 9 7 5 6 7 6 7 6 6 7 8 8 7 8 9 9 12 11 9 8 9 10 9 10 13
13 13 15 15 18 19 19 19 19 16 12 12 11 10 10 8 9 10 12 14 14 13 13 11 5 3 4 5 7 8 9 9 11 13 14 14 13 12 11 12 9 8 10
17 17 20 19 17 16 13 12 10 9 10 10 8 10 9 10 9 8 10 13 14 11 10 10 9 8 3 0 3 6 7 9 10 13 13 12 11 11 11 13 15 13 11
12 12 13 11 9 10 12 9 10 12 10 10 10 9 11 2 5 8 9 10 10 8 6 2 4 1 5 3 2 4 5 7 6 7 11 10 11 10 9 12 16 17 15
13 13 15 14 15 15 14 11 8 6 5 5 5 3 5 8 3 7 8 7 7 5 3 3 2 1 3 3 3 4 4 5 8 8 8 8 9 13 17 17 18 21 20
25 20 17 16 20 28 27 29 17 17 18 13 16 17 15 7 3 7 10 9 10 10 10 10 9 13 12 8 5 7 5 6 4 7 8 5 8 13 15 18 21 21 21
38 35 32 27 22 18 24 27 27 30 27 23 19 23 21 24 20 14 15 13 11 10 10 9 7 7 8 5 3 5 7 7 4 2 4 4 7 12 12 11 11 11 12
30 34 37 35 34 27 25 34 36 30 32 30 28 29 25 25 24 24 22 23 21 21 21 18 13 14 14 13 13 13 13 10 8 8 11 11 10 13 15 13 13 15 17
Wind_Direction_850mb
226 217 215 215 220 224 229 233 235 232 235 234 236 243 249 241 247 248 237 240 244 253 254 249 252 256 255 267 268 270 278 275 276 276 277 278 263 268 282 277 286 277 270
225 219 215 218 224 226 231 232 233 234 234 236 243 239 231 225 237 246 247 249 251 254 258 253 254 259 263 267 261 259 270 281 277 276 275 273 270 276 273 270 275 263 257
226 225 223 226 229 230 231 228 232 233 236 241 238 242 248 242 242 251 249 255 260 260 256 259 257 258 259 261 266 258 267 271 278 274 274 274 268 265 271 267 267 265 256
227 226 230 233 234 232 231 232 234 234 238 240 242 245 242 246 251 257 257 260 261 258 255 259 264 261 260 262 264 267 270 263 269 275 277 273 266 263 262 259 263 270 266
234 229 229 234 235 234 233 234 237 239 237 242 244 246 247 247 251 251 252 253 252 255 256 259 262 266 265 262 268 266 267 271 266 271 278 279 271 269 267 273 271 268 267
213 225 227 232 238 235 232 234 233 238 237 241 242 246 244 243 247 249 249 249 254 259 259 259 259 259 260 263 263 266 269 272 272 276 276 278 275 272 268 270 269 262 260
214 232 229 232 232 233 233 237 235 236 237 237 237 241 243 246 247 246 241 247 256 260 259 258 252 260 262 266 269 270 271 273 275 276 278 280 280 276 267 267 270 265 268
241 224 198 217 221 229 237 237 239 239 237 240 243 242 245 251 248 248 247 245 249 253 255 259 256 255 261 266 267 271 271 269 271 276 279 280 279 280 277 272 268 264 261
234 227 240 218 246 260 264 259 250 241 238 236 248 248 245 246 250 248 248 246 249 253 255 258 258 257 261 264 267 269 270 272 276 278 277 279 278 278 277 276 273 270 260
224 208 218 237 263 273 264 256 260 245 237 235 245 240 246 251 248 248 246 248 252 256 257 258 257 258 262 262 266 267 271 272 274 275 275 277 277 279 276 280 280 274 266
252 237 230 242 250 244 250 252 256 245 239 244 248 248 249 249 249 247 245 246 247 249 255 256 258 260 253 261 263 266 268 265 268 266 262 266 270 276 282 285 284 281 273
243 247 230 228 231 242 255 266 274 270 276 268 270 241 242 244 243 246 250 253 252 253 259 257 254 259 260 265 268 270 262 260 258 257 249 254 259 271 287 291 291 291 292
178 191 199 195 208 220 252 310 273 250 249 246 250 274 244 234 246 251 253 255 259 257 256 256 262 263 267 269 269 259 253 244 232 234 227 239 246 266 277 295 304 301 289
198 179 176 194 218 213 83 344 208 214 260 313 243 233 230 197 226 247 241 248 258 243 240 238 242 255 241 199 208 228 241 232 212 225 231 247 253 266 291 296 311 6 52
192 169 160 136 148 211 293 217 187 178 162 124 152 179 166 134 137 183 220 189 235 249 239 233 205 209 225 235 249 253 246 242 233 237 244 250 253 251 255 263 275 3 62
179 164 173 189 182 174 155 182 171 162 161 166 159 167 172 179 195 203 192 196 184 196 199 208 248 255 250 248 255 260 252 237 229 220 225 212 202 213 216 158 136 119 120
171 173 163 144 131 149 151 166 188 206 218 220 209 203 226 236 234 224 218 206 214 208 213 235 221 241 242 234 223 216 215 206 189 183 194 204 195 173 170 203 196 201 193
171 173 153 142 152 130 152 132 161 165 191 204 171 173 166 187 241 225 206 212 181 181 170 171 177 169 181 203 207 200 201 212 209 188 174 178 182 194 210 219 209 203 196
112 117 125 147 159 160 152 138 124 117 129 130 129 131 124 122 126 135 142 147 132 140 142 144 151 153 176 194 209 210 196 186 191 201 198 203 219 227 229 235 239 233 239
119 120 123 124 122 120 118 110 102 93 99 105 104 109 108 119 127 136 136 130 119 106 104 89 99 147 185 204 220 226 224 218 221 220 220 233 236 233 237 240 249 247 253
130 125 126 126 119 116 122 121 115 105 111 119 110 83 88 107 87 121 131 145 144 125 110 93 69 66 45 77 251 253 243 233 236 232 228 230 241 239 252 257 247 254 272
152 172 170 159 155 132 121 113 118 123 122 106 104 97 61 84 144 128 131 139 142 127 135 169 187 22 351 333 282 274 245 237 245 240 223 233 240 248 284 277 259 264 275
212 221 211 217 250 238 217 216 220 221 209 225 215 174 82 52 139 167 137 152 165 146 202 192 201 57 338 295 293 327 289 268 250 245 239 245 261 278 283 277 270 266 265
225 225 221 231 268 247 242 238 229 242 240 249 253 252 249 232 139 157 167 147 121 125 122 116 111 99 77 76 70 29 16 2 307 240 242 269 302 292 279 274 270 265 258
237 241 243 250 268 244 232 229 225 239 248 247 253 247 238 235 226 203 183 178 181 177 155 124 119 120 111 79 42 52 45 22 355 265 241 284 325 331 310 290 269 243 213
248 244 244 248 250 247 236 243 237 235 244 248 254 253 239 232 234 226 219 216 222 229 226 221 223 230 238 248 262 275 275 273 271 285 275 279 294 314 313 286 268 244 236